Location: Newark
(7.0858°N, 171.3717°E)
Time: 16:46:52
(UTC+00:00)

Altair - Pass Details

Date: 27 November 2020
Orbit: 1501 x 1682 km, 47.2° (Epoch: 20 January)

Event Time Altitude Azimuth Distance (km) Brightness Sun altitude
Rises 09:05:42 0° 265° (W) 4,771 10.9 -40.5°
Reaches altitude 10° 09:10:38 10° 286° (WNW) 3,747 10.0 -41.7°
Maximum altitude 09:15:44 16° 319° (NW) 3,284 9.3 -42.8°
Enters shadow 09:17:20 15° 331° (NNW) 3,319 9.2 -43.2°
